Location: Unspecified
(42.3650°N, 71.1030°W)
Time: 17:11:25
(UTC+00:00)

Tiros 1 - Pass Details

Date: 26 June 2024
Orbit: 624 x 656 km, 48.4° (Epoch: 13 July)

Event Time Altitude Azimuth Distance (km) Brightness Sun altitude
Rises 06:50:28 0° 290° (WNW) 2,907 10.4 -18.4°
Reaches altitude 10° 06:52:53 10° 298° (WNW) 2,003 9.6 -18.2°
Maximum altitude 06:57:16 42° 10° (N) 897 8.3 -17.8°
Drops below altitude 10° 07:01:41 10° 82° (E) 2,016 10.2 -17.4°
Sets 07:04:08 0° 89° (E) 2,929 11.0 -17.1°
